sat.trackr.live / text

‹ back to catalog

STARLINK-36869

NORAD 67954 · 2026-037Y

PAYLOAD ACTIVE UNKNOWN

§ Identity

Operator
Country
US
Launch date
2026-02-24
Launch site
AFETR
Launch vehicle
Mass (kg)
RCS (m²)

Purposes: comms

External: N2YO · Heavens-Above · Gunter

§ Orbital elements

Epoch: 2026-09-19T03:06:46.693440Z

Period
94.27 min
Inclination
42.9984°
Eccentricity
0.0001255
Mean motion
15.27588413 rev/d
Perigee alt
482.2 km
Apogee alt
483.9 km
Semi-major
6,861.2 km
B*
3.9365e-4
RAAN
178.3909°
Arg perigee
267.5224°
Mean anomaly
92.5484°
Rev number
3,292

§ Raw data

STARLINK-368691 67954U 26037Y   26262.12970710  .00010589  00000+0  39365-3 0  99952 67954  42.9984 178.3909 0001255 267.5224  92.5484 15.27588413 32929

JSON: /api/v1/satellites/67954 · /tle

For live sub-satellite position, see the globe view (requires WebGL).

§ Visibility from observer

Set your observer location to see the next 7 days of passes ≥ 10°. The values pass through the URL so the page stays shareable.

No JS? Fill the form by hand. The geolocation button needs JavaScript.